| time (UTC) | temp F | wind direction | speed MPH | gust MPH | rain 1hr in | rain 24hr in | rain mn in | humidity % | barometer mb |
| 20260508170136 | 59 | 279 | 3.0 | 17.0 | 0.00 | 0.01 | 0.01 | 52 | 1010.4 |
| 20260508165846 | 59 | 241 | 5.0 | 17.0 | 0.00 | 0.01 | 0.01 | 49 | 1010.4 |
| 20260508165644 | 59 | 302 | 4.0 | 14.0 | 0.00 | 0.01 | 0.01 | 52 | 1010.5 |
| 20260508165335 | 59 | 239 | 6.0 | 14.0 | 0.00 | 0.01 | 0.01 | 53 | 1010.5 |
| 20260508165154 | 59 | 316 | 5.0 | 17.0 | 0.00 | 0.01 | 0.01 | 52 | 1010.5 |
| 20260508164905 | 58 | 248 | 7.0 | 20.0 | 0.00 | 0.01 | 0.01 | 52 | 1010.6 |
| 20260508164703 | 58 | 224 | 5.0 | 20.0 | 0.00 | 0.01 | 0.01 | 53 | 1010.5 |
| 20260508164331 | 58 | 257 | 11.0 | 20.0 | 0.00 | 0.01 | 0.01 | 53 | 1010.7 |
| 20260508164154 | 58 | 269 | 7.0 | 10.0 | 0.00 | 0.01 | 0.01 | 54 | 1010.5 |
| 20260508163840 | 58 | 210 | 4.0 | 12.0 | 0.00 | 0.01 | 0.01 | 54 | 1010.6 |
| 20260508163643 | 58 | 252 | 6.0 | 20.0 | 0.00 | 0.01 | 0.01 | 53 | 1010.6 |
| 20260508163330 | 58 | 225 | 6.0 | 20.0 | 0.00 | 0.01 | 0.01 | 52 | 1010.6 |
| 20260508163133 | 58 | 279 | 6.0 | 20.0 | 0.00 | 0.01 | 0.01 | 53 | 1010.6 |
| 20260508162840 | 58 | 268 | 10.0 | 20.0 | 0.00 | 0.01 | 0.01 | 53 | 1010.7 |
| 20260508162641 | 57 | 254 | 7.0 | 16.0 | 0.00 | 0.01 | 0.01 | 53 | 1010.8 |
| 20260508162347 | 57 | 266 | 9.0 | 17.0 | 0.00 | 0.01 | 0.01 | 52 | 1010.8 |
| 20260508162149 | 57 | 227 | 10.0 | 17.0 | 0.00 | 0.01 | 0.01 | 53 | 1010.9 |
| 20260508161835 | 57 | 244 | 10.0 | 17.0 | 0.00 | 0.01 | 0.01 | 52 | 1011.0 |
| 20260508161637 | 57 | 225 | 11.0 | 17.0 | 0.00 | 0.01 | 0.01 | 53 | 1010.9 |
| 20260508161403 | 58 | 282 | 8.0 | 16.0 | 0.01 | 0.01 | 0.01 | 52 | 1010.9 |
| 20260508161201 | 58 | 264 | 5.0 | 15.0 | 0.01 | 0.01 | 0.01 | 52 | 1010.9 |
| 20260508160830 | 57 | 310 | 7.0 | 15.0 | 0.01 | 0.01 | 0.01 | 53 | 1011.0 |
| 20260508160648 | 58 | 241 | 5.0 | 14.0 | 0.01 | 0.01 | 0.01 | 53 | 1011.0 |
| 20260508160359 | 58 | 280 | 5.0 | 14.0 | 0.01 | 0.01 | 0.01 | 51 | 1011.0 |
| 20260508160135 | 58 | 239 | 8.0 | 14.0 | 0.01 | 0.01 | 0.01 | 51 | 1011.1 |
| 20260508155847 | 58 | 263 | 7.0 | 14.0 | 0.01 | 0.01 | 0.01 | 51 | 1011.0 |
| 20260508155645 | 58 | 230 | 6.0 | 17.0 | 0.01 | 0.01 | 0.01 | 52 | 1010.9 |
| 20260508155335 | 58 | 222 | 3.0 | 17.0 | 0.01 | 0.01 | 0.01 | 53 | 1010.9 |
| 20260508155133 | 58 | 207 | 5.0 | 17.0 | 0.01 | 0.01 | 0.01 | 50 | 1010.9 |
| 20260508154843 | 58 | 228 | 10.0 | 17.0 | 0.01 | 0.01 | 0.01 | 49 | 1011.1 |
| 20260508154642 | 58 | 224 | 6.0 | 15.0 | 0.01 | 0.01 | 0.01 | 53 | 1011.1 |
| 20260508154407 | 58 | 262 | 6.0 | 15.0 | 0.01 | 0.01 | 0.01 | 52 | 1011.1 |
| 20260508154209 | 57 | 316 | 4.0 | 15.0 | 0.01 | 0.01 | 0.01 | 53 | 1011.1 |
| 20260508153835 | 57 | 254 | 4.0 | 15.0 | 0.01 | 0.01 | 0.01 | 53 | 1011.1 |
| 20260508153638 | 57 | 7 | 5.0 | 15.0 | 0.01 | 0.01 | 0.01 | 53 | 1011.2 |
| 20260508153345 | 56 | 256 | 5.0 | 15.0 | 0.01 | 0.01 | 0.01 | 53 | 1011.2 |
| 20260508153146 | 57 | 253 | 7.0 | 16.0 | 0.01 | 0.01 | 0.01 | 51 | 1011.3 |
| 20260508152832 | 57 | 257 | 5.0 | 16.0 | 0.01 | 0.01 | 0.01 | 52 | 1011.3 |
| 20260508152633 | 57 | 239 | 8.0 | 16.0 | 0.01 | 0.01 | 0.01 | 50 | 1011.3 |
| 20260508152338 | 57 | 285 | 3.0 | 14.0 | 0.01 | 0.01 | 0.01 | 53 | 1011.3 |
| 20260508152140 | 57 | 243 | 3.0 | 14.0 | 0.01 | 0.01 | 0.01 | 51 | 1011.2 |
| 20260508151847 | 58 | 304 | 4.0 | 14.0 | 0.01 | 0.01 | 0.01 | 50 | 1011.2 |
| 20260508151648 | 58 | 324 | 6.0 | 14.0 | 0.01 | 0.01 | 0.01 | 50 | 1011.1 |
| 20260508151334 | 58 | 254 | 5.0 | 11.0 | 0.00 | 0.00 | 0.00 | 51 | 1011.2 |
| 20260508151135 | 58 | 235 | 4.0 | 12.0 | 0.00 | 0.00 | 0.00 | 51 | 1011.0 |
| 20260508150842 | 58 | 256 | 4.0 | 12.0 | 0.00 | 0.00 | 0.00 | 52 | 1011.0 |
| 20260508150641 | 58 | 331 | 3.0 | 12.0 | 0.00 | 0.00 | 0.00 | 51 | 1011.1 |
| 20260508150353 | 58 | 262 | 6.0 | 12.0 | 0.00 | 0.00 | 0.00 | 50 | 1011.0 |
| 20260508150150 | 58 | 221 | 3.0 | 6.0 | 0.00 | 0.00 | 0.00 | 49 | 1011.0 |
| 20260508145841 | 58 | 239 | 3.0 | 8.0 | 0.00 | 0.00 | 0.00 | 54 | 1011.0 |
| 20260508145639 | 58 | 260 | 1.0 | 13.0 | 0.00 | 0.00 | 0.00 | 55 | 1010.9 |
| 20260508145330 | 58 | 260 | 3.0 | 13.0 | 0.00 | 0.00 | 0.00 | 51 | 1011.0 |
| 20260508145147 | 58 | 235 | 4.0 | 13.0 | 0.00 | 0.00 | 0.00 | 53 | 1011.0 |
| 20260508144839 | 58 | 214 | 6.0 | 13.0 | 0.00 | 0.00 | 0.00 | 52 | 1011.0 |
| 20260508144637 | 58 | 215 | 4.0 | 9.0 | 0.00 | 0.00 | 0.00 | 52 | 1010.9 |
| 20260508144348 | 58 | 233 | 2.0 | 9.0 | 0.00 | 0.00 | 0.00 | 52 | 1010.9 |
| 20260508144145 | 57 | 244 | 3.0 | 9.0 | 0.00 | 0.00 | 0.00 | 53 | 1010.9 |
| 20260508143836 | 57 | 351 | 3.0 | 9.0 | 0.00 | 0.00 | 0.00 | 54 | 1010.9 |
| 20260508143634 | 57 | 356 | 2.0 | 5.0 | 0.00 | 0.00 | 0.00 | 55 | 1011.0 |
| 20260508143345 | 56 | 295 | 2.0 | 8.0 | 0.00 | 0.00 | 0.00 | 53 | 1011.0 |
| 20260508143143 | 56 | 245 | 1.0 | 8.0 | 0.00 | 0.00 | 0.00 | 54 | 1011.0 |
| 20260508142834 | 56 | 246 | 3.0 | 9.0 | 0.00 | 0.00 | 0.00 | 54 | 1011.1 |
| 20260508142633 | 55 | 284 | 5.0 | 9.0 | 0.00 | 0.00 | 0.00 | 54 | 1011.1 |
| 20260508142343 | 55 | 227 | 3.0 | 11.0 | 0.00 | 0.00 | 0.00 | 53 | 1011.1 |
| 20260508142140 | 56 | 228 | 5.0 | 11.0 | 0.00 | 0.00 | 0.00 | 53 | 1011.1 |
| 20260508141851 | 56 | 223 | 4.0 | 11.0 | 0.00 | 0.00 | 0.00 | 53 | 1011.1 |
| 20260508141647 | 56 | 218 | 6.0 | 11.0 | 0.00 | 0.00 | 0.00 | 54 | 1011.2 |
| 20260508141331 | 56 | 270 | 5.0 | 12.0 | 0.00 | 0.00 | 0.00 | 55 | 1011.2 |
| 20260508141133 | 56 | 235 | 7.0 | 12.0 | 0.00 | 0.00 | 0.00 | 53 | 1011.1 |
| 20260508140840 | 56 | 233 | 2.0 | 7.0 | 0.00 | 0.00 | 0.00 | 54 | 1011.2 |
| 20260508140645 | 56 | 279 | 2.0 | 7.0 | 0.00 | 0.00 | 0.00 | 55 | 1011.2 |
| 20260508140332 | 56 | 235 | 4.0 | 7.0 | 0.00 | 0.00 | 0.00 | 54 | 1011.3 |
| 20260508140134 | 56 | 299 | 1.0 | 6.0 | 0.00 | 0.00 | 0.00 | 57 | 1011.3 |
| 20260508135840 | 55 | 255 | 2.0 | 8.0 | 0.00 | 0.00 | 0.00 | 57 | 1011.4 |
| 20260508135703 | 55 | 356 | 1.0 | 8.0 | 0.00 | 0.00 | 0.00 | 58 | 1011.4 |
| 20260508135348 | 55 | 268 | 3.0 | 9.0 | 0.00 | 0.00 | 0.00 | 57 | 1011.5 |
| 20260508135149 | 55 | 356 | 3.0 | 9.0 | 0.00 | 0.00 | 0.00 | 56 | 1011.5 |
| 20260508134837 | 55 | 7 | 2.0 | 9.0 | 0.00 | 0.00 | 0.00 | 57 | 1011.5 |
| 20260508134638 | 55 | 21 | 3.0 | 9.0 | 0.00 | 0.00 | 0.00 | 58 | 1011.6 |
| 20260508134344 | 55 | 287 | 3.0 | 8.0 | 0.00 | 0.00 | 0.00 | 60 | 1011.5 |
| 20260508134143 | 55 | 20 | 3.0 | 8.0 | 0.00 | 0.00 | 0.00 | 59 | 1011.5 |
| 20260508133853 | 55 | 259 | 3.0 | 10.0 | 0.00 | 0.00 | 0.00 | 60 | 1011.4 |
| 20260508133649 | 55 | 339 | 3.0 | 10.0 | 0.00 | 0.00 | 0.00 | 61 | 1011.5 |
| 20260508133339 | 54 | 253 | 4.0 | 10.0 | 0.00 | 0.00 | 0.00 | 62 | 1011.5 |
| 20260508133138 | 54 | 225 | 3.0 | 8.0 | 0.00 | 0.00 | 0.00 | 63 | 1011.5 |
| 20260508132848 | 54 | 44 | 1.0 | 8.0 | 0.00 | 0.00 | 0.00 | 65 | 1011.4 |
| 20260508132645 | 54 | 70 | 2.0 | 8.0 | 0.00 | 0.00 | 0.00 | 63 | 1011.4 |
| 20260508132356 | 53 | 10 | 2.0 | 8.0 | 0.00 | 0.00 | 0.00 | 64 | 1011.4 |
| 20260508132133 | 53 | 237 | 4.0 | 8.0 | 0.00 | 0.00 | 0.00 | 63 | 1011.4 |
| 20260508131844 | 53 | 235 | 2.0 | 8.0 | 0.00 | 0.00 | 0.00 | 65 | 1011.3 |
| 20260508131642 | 53 | 351 | 4.0 | 8.0 | 0.00 | 0.00 | 0.00 | 65 | 1011.3 |
| 20260508131351 | 53 | 253 | 2.0 | 6.0 | 0.00 | 0.00 | 0.00 | 65 | 1011.4 |
| 20260508131210 | 53 | 247 | 3.0 | 6.0 | 0.00 | 0.00 | 0.00 | 66 | 1011.4 |
| 20260508130839 | 52 | 4 | 1.0 | 9.0 | 0.00 | 0.00 | 0.00 | 67 | 1011.4 |
| 20260508130636 | 52 | 356 | 1.0 | 9.0 | 0.00 | 0.00 | 0.00 | 68 | 1011.4 |
| 20260508130344 | 52 | 356 | 4.0 | 9.0 | 0.00 | 0.00 | 0.00 | 67 | 1011.5 |
| 20260508130147 | 52 | 6 | 5.0 | 9.0 | 0.00 | 0.00 | 0.00 | 67 | 1011.5 |
| 20260508125855 | 52 | 335 | 3.0 | 10.0 | 0.00 | 0.00 | 0.00 | 67 | 1011.6 |
| 20260508125656 | 52 | 2 | 2.0 | 12.0 | 0.00 | 0.00 | 0.00 | 69 | 1011.5 |
| 20260508125342 | 52 | 10 | 5.0 | 12.0 | 0.00 | 0.00 | 0.00 | 68 | 1011.5 |
| 20260508125143 | 52 | 15 | 5.0 | 12.0 | 0.00 | 0.00 | 0.00 | 67 | 1011.5 |
| 20260508124849 | 52 | 356 | 4.0 | 12.0 | 0.00 | 0.00 | 0.00 | 68 | 1011.6 |
| 20260508124630 | 52 | 356 | 2.0 | 10.0 | 0.00 | 0.00 | 0.00 | 69 | 1011.6 |
| 20260508124336 | 51 | 319 | 2.0 | 10.0 | 0.00 | 0.00 | 0.00 | 69 | 1011.6 |
| 20260508124154 | 51 | 360 | 4.0 | 10.0 | 0.00 | 0.00 | 0.00 | 69 | 1011.7 |
| 20260508123845 | 51 | 14 | 2.0 | 9.0 | 0.00 | 0.00 | 0.00 | 71 | 1011.6 |
| 20260508123644 | 51 | 10 | 2.0 | 9.0 | 0.00 | 0.00 | 0.00 | 72 | 1011.6 |
| 20260508123334 | 51 | 6 | 3.0 | 10.0 | 0.00 | 0.00 | 0.00 | 73 | 1011.7 |
| 20260508123132 | 51 | 324 | 2.0 | 11.0 | 0.00 | 0.00 | 0.00 | 73 | 1011.7 |
| 20260508122843 | 51 | 356 | 2.0 | 11.0 | 0.00 | 0.00 | 0.00 | 72 | 1011.7 |
| 20260508122642 | 51 | 6 | 6.0 | 11.0 | 0.00 | 0.00 | 0.00 | 72 | 1011.6 |
| 20260508122332 | 51 | 8 | 5.0 | 11.0 | 0.00 | 0.00 | 0.00 | 71 | 1011.7 |
| 20260508122150 | 51 | 351 | 5.0 | 10.0 | 0.00 | 0.00 | 0.00 | 71 | 1011.7 |
| 20260508121901 | 50 | 338 | 1.0 | 8.0 | 0.00 | 0.00 | 0.00 | 72 | 1011.6 |
| 20260508121658 | 50 | 17 | 2.0 | 8.0 | 0.00 | 0.00 | 0.00 | 72 | 1011.6 |
| 20260508121346 | 50 | 12 | 4.0 | 10.0 | 0.00 | 0.00 | 0.00 | 72 | 1011.6 |
| 20260508121206 | 50 | 351 | 2.0 | 10.0 | 0.00 | 0.00 | 0.00 | 71 | 1011.6 |
| 20260508120835 | 50 | 267 | 2.0 | 10.0 | 0.00 | 0.00 | 0.00 | 73 | 1011.7 |
| 20260508120634 | 50 | 239 | 3.0 | 10.0 | 0.00 | 0.00 | 0.00 | 74 | 1011.7 |
| 20260508120341 | 50 | 351 | 2.0 | 6.0 | 0.00 | 0.00 | 0.00 | 75 | 1011.7 |
| 20260508120203 | 50 | 322 | 3.0 | 6.0 | 0.00 | 0.00 | 0.00 | 75 | 1011.7 |
| 20260508115849 | 49 | 323 | 2.0 | 9.0 | 0.00 | 0.00 | 0.00 | 77 | 1011.6 |
| 20260508115631 | 49 | 7 | 2.0 | 9.0 | 0.00 | 0.00 | 0.00 | 78 | 1011.6 |
| 20260508115358 | 49 | 8 | 2.0 | 9.0 | 0.00 | 0.00 | 0.00 | 78 | 1011.6 |
| 20260508115139 | 49 | 11 | 3.0 | 9.0 | 0.00 | 0.00 | 0.00 | 79 | 1011.5 |
| 20260508114847 | 48 | 4 | 3.0 | 6.0 | 0.00 | 0.00 | 0.00 | 80 | 1011.5 |
| 20260508114649 | 48 | 264 | 2.0 | 6.0 | 0.00 | 0.00 | 0.00 | 81 | 1011.5 |
| 20260508114334 | 48 | 156 | 2.0 | 8.0 | 0.00 | 0.00 | 0.00 | 83 | 1011.6 |
| 20260508114138 | 48 | 190 | 2.0 | 8.0 | 0.00 | 0.00 | 0.00 | 83 | 1011.6 |
| 20260508113843 | 47 | 220 | 3.0 | 8.0 | 0.00 | 0.00 | 0.00 | 84 | 1011.6 |
| 20260508113642 | 47 | 300 | 1.0 | 2.0 | 0.00 | 0.00 | 0.00 | 86 | 1011.6 |
| 20260508113333 | 47 | 300 | 1.0 | 2.0 | 0.00 | 0.00 | 0.00 | 86 | 1011.5 |
| 20260508113151 | 47 | 300 | 1.0 | 2.0 | 0.00 | 0.00 | 0.00 | 86 | 1011.6 |
| 20260508112901 | 46 | 300 | 1.0 | 2.0 | 0.00 | 0.00 | 0.00 | 87 | 1011.4 |
| 20260508112637 | 46 | 300 | 2.0 | 2.0 | 0.00 | 0.00 | 0.00 | 87 | 1011.5 |
| 20260508112348 | 46 | 300 | 1.0 | 3.0 | 0.00 | 0.00 | 0.00 | 87 | 1011.4 |
| 20260508112145 | 46 | 300 | 0.0 | 3.0 | 0.00 | 0.00 | 0.00 | 87 | 1011.5 |
| 20260508111837 | 46 | 300 | 1.0 | 3.0 | 0.00 | 0.00 | 0.00 | 87 | 1011.3 |
| 20260508111635 | 46 | 300 | 2.0 | 3.0 | 0.00 | 0.00 | 0.00 | 87 | 1011.3 |
| 20260508111344 | 46 | 300 | 1.0 | 3.0 | 0.00 | 0.00 | 0.00 | 88 | 1011.3 |
| 20260508111143 | 46 | 300 | 2.0 | 3.0 | 0.00 | 0.00 | 0.00 | 88 | 1011.3 |
| 20260508110833 | 45 | 300 | 1.0 | 3.0 | 0.00 | 0.00 | 0.00 | 88 | 1011.4 |
| 20260508110631 | 45 | 300 | 1.0 | 3.0 | 0.00 | 0.00 | 0.00 | 88 | 1011.4 |
| 20260508110409 | 45 | 300 | 1.0 | 3.0 | 0.00 | 0.00 | 0.00 | 88 | 1011.4 |
| 20260508110144 | 45 | 300 | 2.0 | 3.0 | 0.00 | 0.00 | 0.00 | 88 | 1011.4 |
| 20260508105834 | 45 | 300 | 2.0 | 3.0 | 0.00 | 0.00 | 0.00 | 88 | 1011.3 |
| 20260508105633 | 45 | 300 | 2.0 | 3.0 | 0.00 | 0.00 | 0.00 | 88 | 1011.3 |
| 20260508105344 | 45 | 300 | 0.0 | 3.0 | 0.00 | 0.00 | 0.00 | 88 | 1011.3 |
| 20260508105141 | 45 | 300 | 1.0 | 3.0 | 0.00 | 0.00 | 0.00 | 89 | 1011.3 |
| 20260508104832 | 45 | 300 | 1.0 | 3.0 | 0.00 | 0.00 | 0.00 | 89 | 1011.2 |
| 20260508104649 | 45 | 300 | 1.0 | 3.0 | 0.00 | 0.00 | 0.00 | 89 | 1011.2 |
| 20260508104416 | 45 | 299 | 1.0 | 3.0 | 0.00 | 0.00 | 0.00 | 90 | 1011.2 |
| 20260508104130 | 44 | 300 | 1.0 | 3.0 | 0.00 | 0.00 | 0.00 | 90 | 1011.3 |
| 20260508103837 | 44 | 324 | 1.0 | 3.0 | 0.00 | 0.00 | 0.00 | 90 | 1011.2 |
| 20260508103638 | 44 | 324 | 0.0 | 3.0 | 0.00 | 0.00 | 0.00 | 91 | 1011.3 |
| 20260508103346 | 44 | 324 | 1.0 | 3.0 | 0.00 | 0.00 | 0.00 | 91 | 1011.2 |
| 20260508103149 | 44 | 324 | 2.0 | 3.0 | 0.00 | 0.00 | 0.00 | 91 | 1011.2 |
| 20260508102856 | 44 | 324 | 0.0 | 3.0 | 0.00 | 0.00 | 0.00 | 91 | 1011.1 |
| 20260508102654 | 44 | 324 | 1.0 | 4.0 | 0.00 | 0.00 | 0.00 | 90 | 1011.1 |
| 20260508102344 | 44 | 324 | 1.0 | 4.0 | 0.00 | 0.00 | 0.00 | 90 | 1011.0 |
| 20260508102143 | 44 | 324 | 2.0 | 4.0 | 0.00 | 0.00 | 0.00 | 90 | 1011.0 |
| 20260508101853 | 43 | 324 | 2.0 | 4.0 | 0.00 | 0.00 | 0.00 | 90 | 1010.9 |
| 20260508101631 | 43 | 322 | 2.0 | 3.0 | 0.00 | 0.00 | 0.00 | 90 | 1010.9 |
| 20260508101339 | 43 | 322 | 2.0 | 3.0 | 0.00 | 0.00 | 0.00 | 89 | 1010.8 |
| 20260508101136 | 43 | 322 | 2.0 | 3.0 | 0.00 | 0.00 | 0.00 | 89 | 1010.9 |
| 20260508100846 | 43 | 322 | 1.0 | 3.0 | 0.00 | 0.00 | 0.00 | 89 | 1010.8 |
| 20260508100644 | 43 | 322 | 2.0 | 3.0 | 0.00 | 0.00 | 0.00 | 89 | 1010.8 |
| 20260508100354 | 43 | 322 | 1.0 | 3.0 | 0.00 | 0.00 | 0.00 | 89 | 1010.8 |
| 20260508100130 | 43 | 322 | 2.0 | 3.0 | 0.00 | 0.00 | 0.00 | 89 | 1010.7 |
| 20260508095840 | 43 | 322 | 2.0 | 3.0 | 0.00 | 0.00 | 0.00 | 88 | 1010.7 |
| 20260508095637 | 43 | 335 | 0.0 | 1.0 | 0.00 | 0.00 | 0.00 | 88 | 1010.7 |
| 20260508095348 | 43 | 335 | 0.0 | 1.0 | 0.00 | 0.00 | 0.00 | 88 | 1010.6 |
| 20260508095145 | 43 | 335 | 0.0 | 1.0 | 0.00 | 0.00 | 0.00 | 88 | 1010.7 |
| 20260508094834 | 44 | 335 | 0.0 | 1.0 | 0.00 | 0.00 | 0.00 | 87 | 1010.7 |
| 20260508094633 | 44 | 335 | 0.0 | 1.0 | 0.00 | 0.00 | 0.00 | 87 | 1010.7 |
| 20260508094339 | 44 | 335 | 0.0 | 1.0 | 0.00 | 0.00 | 0.00 | 87 | 1010.7 |
| 20260508094141 | 44 | 335 | 0.0 | 1.0 | 0.00 | 0.00 | 0.00 | 87 | 1010.7 |
| 20260508093848 | 44 | 335 | 0.0 | 1.0 | 0.00 | 0.00 | 0.00 | 87 | 1010.7 |
| 20260508093649 | 44 | 335 | 0.0 | 1.0 | 0.00 | 0.00 | 0.00 | 87 | 1010.6 |
| 20260508093355 | 44 | 335 | 1.0 | 2.0 | 0.00 | 0.00 | 0.00 | 87 | 1010.6 |
| 20260508093130 | 44 | 335 | 0.0 | 2.0 | 0.00 | 0.00 | 0.00 | 87 | 1010.6 |
| 20260508092837 | 44 | 335 | 0.0 | 2.0 | 0.00 | 0.00 | 0.00 | 87 | 1010.6 |
| 20260508092659 | 44 | 335 | 1.0 | 2.0 | 0.00 | 0.00 | 0.00 | 87 | 1010.6 |
| 20260508092345 | 44 | 335 | 1.0 | 2.0 | 0.00 | 0.00 | 0.00 | 87 | 1010.6 |
| 20260508092147 | 45 | 335 | 0.0 | 3.0 | 0.00 | 0.00 | 0.00 | 87 | 1010.6 |
| 20260508091836 | 45 | 335 | 0.0 | 3.0 | 0.00 | 0.00 | 0.00 | 87 | 1010.6 |
| 20260508091638 | 45 | 335 | 1.0 | 3.0 | 0.00 | 0.00 | 0.00 | 87 | 1010.5 |
| 20260508091343 | 45 | 335 | 0.0 | 2.0 | 0.00 | 0.00 | 0.00 | 87 | 1010.5 |
| 20260508091141 | 45 | 335 | 1.0 | 2.0 | 0.00 | 0.00 | 0.00 | 88 | 1010.6 |
| 20260508090833 | 45 | 335 | 1.0 | 3.0 | 0.00 | 0.00 | 0.00 | 87 | 1010.5 |
| 20260508090630 | 45 | 335 | 1.0 | 3.0 | 0.00 | 0.00 | 0.00 | 87 | 1010.6 |
| 20260508090409 | 45 | 335 | 1.0 | 3.0 | 0.00 | 0.00 | 0.00 | 87 | 1010.6 |
| 20260508090208 | 45 | 335 | 1.0 | 3.0 | 0.00 | 0.00 | 0.00 | 87 | 1010.5 |
| 20260508085838 | 45 | 356 | 0.0 | 2.0 | 0.00 | 0.00 | 0.00 | 87 | 1010.5 |
| 20260508085635 | 45 | 356 | 0.0 | 2.0 | 0.00 | 0.00 | 0.00 | 87 | 1010.4 |
| 20260508085345 | 45 | 356 | 0.0 | 2.0 | 0.00 | 0.00 | 0.00 | 87 | 1010.4 |
| 20260508085143 | 45 | 356 | 0.0 | 2.0 | 0.00 | 0.00 | 0.00 | 87 | 1010.4 |
| 20260508084835 | 46 | 356 | 0.0 | 1.0 | 0.00 | 0.00 | 0.00 | 87 | 1010.4 |
| 20260508084631 | 46 | 356 | 0.0 | 1.0 | 0.00 | 0.00 | 0.00 | 87 | 1010.4 |
| 20260508084342 | 46 | 356 | 0.0 | 1.0 | 0.00 | 0.00 | 0.00 | 87 | 1010.4 |
| 20260508084139 | 46 | 356 | 0.0 | 0.0 | 0.00 | 0.00 | 0.00 | 87 | 1010.3 |
| 20260508083848 | 46 | 356 | 0.0 | 0.0 | 0.00 | 0.00 | 0.00 | 87 | 1010.3 |
| 20260508083644 | 46 | 356 | 0.0 | 0.0 | 0.00 | 0.00 | 0.00 | 86 | 1010.3 |
| 20260508083338 | 46 | 356 | 0.0 | 1.0 | 0.00 | 0.00 | 0.00 | 86 | 1010.3 |
| 20260508083135 | 46 | 356 | 0.0 | 1.0 | 0.00 | 0.00 | 0.00 | 86 | 1010.3 |
| 20260508082846 | 46 | 356 | 0.0 | 1.0 | 0.00 | 0.00 | 0.00 | 86 | 1010.3 |
| 20260508082644 | 46 | 356 | 0.0 | 1.0 | 0.00 | 0.00 | 0.00 | 86 | 1010.3 |
| 20260508082335 | 46 | 356 | 0.0 | 1.0 | 0.00 | 0.00 | 0.00 | 86 | 1010.4 |
| 20260508082133 | 46 | 356 | 0.0 | 1.0 | 0.00 | 0.00 | 0.00 | 86 | 1010.3 |
| 20260508081840 | 46 | 356 | 0.0 | 2.0 | 0.00 | 0.00 | 0.00 | 86 | 1010.2 |
| 20260508081641 | 46 | 356 | 0.0 | 2.0 | 0.00 | 0.00 | 0.00 | 86 | 1010.3 |
| 20260508081346 | 46 | 356 | 1.0 | 2.0 | 0.00 | 0.00 | 0.00 | 86 | 1010.1 |
| 20260508081148 | 46 | 356 | 0.0 | 2.0 | 0.00 | 0.00 | 0.00 | 86 | 1010.1 |
| 20260508080835 | 46 | 356 | 1.0 | 2.0 | 0.00 | 0.00 | 0.00 | 86 | 1010.1 |
| 20260508080658 | 46 | 356 | 0.0 | 2.0 | 0.00 | 0.00 | 0.00 | 86 | 1010.2 |
| 20260508080343 | 46 | 356 | 0.0 | 3.0 | 0.00 | 0.00 | 0.00 | 86 | 1010.3 |
| 20260508080146 | 46 | 356 | 0.0 | 3.0 | 0.00 | 0.00 | 0.00 | 86 | 1010.4 |
| 20260508075847 | 46 | 356 | 0.0 | 4.0 | 0.00 | 0.00 | 0.00 | 86 | 1010.3 |
| 20260508075648 | 46 | 356 | 1.0 | 4.0 | 0.00 | 0.00 | 0.00 | 86 | 1010.3 |
| 20260508075355 | 46 | 360 | 1.0 | 4.0 | 0.00 | 0.00 | 0.00 | 86 | 1010.3 |
| 20260508075134 | 46 | 356 | 0.0 | 3.0 | 0.00 | 0.00 | 0.00 | 87 | 1010.4 |
| 20260508074844 | 46 | 356 | 1.0 | 3.0 | 0.00 | 0.01 | 0.00 | 87 | 1010.3 |
| 20260508074642 | 46 | 356 | 0.0 | 4.0 | 0.00 | 0.01 | 0.00 | 86 | 1010.2 |
| 20260508074333 | 46 | 356 | 2.0 | 5.0 | 0.00 | 0.01 | 0.00 | 87 | 1010.2 |
| 20260508074132 | 46 | 356 | 2.0 | 5.0 | 0.00 | 0.01 | 0.00 | 86 | 1010.3 |
| 20260508073844 | 46 | 356 | 2.0 | 5.0 | 0.00 | 0.01 | 0.00 | 86 | 1010.2 |
| 20260508073642 | 46 | 6 | 1.0 | 5.0 | 0.00 | 0.01 | 0.00 | 86 | 1010.3 |
| 20260508073334 | 46 | 7 | 2.0 | 5.0 | 0.00 | 0.01 | 0.00 | 86 | 1010.2 |
| 20260508073133 | 46 | 6 | 2.0 | 5.0 | 0.00 | 0.01 | 0.00 | 86 | 1010.2 |
| 20260508072843 | 46 | 346 | 2.0 | 5.0 | 0.00 | 0.01 | 0.00 | 86 | 1010.2 |
| 20260508072642 | 46 | 356 | 2.0 | 5.0 | 0.00 | 0.01 | 0.00 | 86 | 1010.2 |
| 20260508072333 | 46 | 4 | 2.0 | 5.0 | 0.00 | 0.01 | 0.00 | 86 | 1010.2 |
| 20260508072132 | 46 | 1 | 2.0 | 5.0 | 0.00 | 0.01 | 0.00 | 86 | 1010.2 |
| 20260508071843 | 46 | 360 | 3.0 | 6.0 | 0.00 | 0.01 | 0.00 | 86 | 1010.2 |
| 20260508071641 | 46 | 360 | 3.0 | 8.0 | 0.00 | 0.01 | 0.00 | 86 | 1010.2 |
| 20260508071349 | 47 | 356 | 4.0 | 8.0 | 0.00 | 0.01 | 0.00 | 85 | 1010.2 |
| 20260508071147 | 47 | 2 | 4.0 | 10.0 | 0.00 | 0.01 | 0.00 | 85 | 1010.2 |
| 20260508070838 | 47 | 9 | 3.0 | 11.0 | 0.00 | 0.01 | 0.00 | 85 | 1010.2 |
| 20260508070636 | 47 | 38 | 4.0 | 12.0 | 0.00 | 0.01 | 0.00 | 85 | 1010.2 |
| 20260508070347 | 47 | 356 | 4.0 | 12.0 | 0.00 | 0.01 | 0.00 | 85 | 1010.3 |
| 20260508070145 | 47 | 356 | 6.0 | 12.0 | 0.00 | 0.01 | 0.00 | 85 | 1010.3 |
| 20260508065856 | 47 | 33 | 6.0 | 12.0 | 0.00 | 0.01 | 0.00 | 85 | 1010.4 |
| 20260508065632 | 47 | 14 | 4.0 | 10.0 | 0.00 | 0.01 | 0.00 | 85 | 1010.3 |
| 20260508065359 | 47 | 8 | 3.0 | 6.0 | 0.00 | 0.01 | 0.00 | 85 | 1010.4 |
| 20260508065141 | 47 | 4 | 3.0 | 7.0 | 0.00 | 0.01 | 0.00 | 85 | 1010.4 |
| 20260508064847 | 47 | 9 | 2.0 | 4.0 | 0.00 | 0.08 | 0.00 | 84 | 1010.3 |
| 20260508064651 | 47 | 10 | 2.0 | 4.0 | 0.00 | 0.08 | 0.00 | 84 | 1010.3 |
| 20260508064338 | 47 | 10 | 3.0 | 4.0 | 0.00 | 0.08 | 0.00 | 83 | 1010.3 |
| 20260508064140 | 47 | 10 | 2.0 | 4.0 | 0.00 | 0.08 | 0.00 | 83 | 1010.3 |
| 20260508063846 | 47 | 10 | 2.0 | 4.0 | 0.00 | 0.08 | 0.00 | 83 | 1010.3 |
| 20260508063648 | 48 | 20 | 2.0 | 3.0 | 0.00 | 0.08 | 0.00 | 83 | 1010.4 |
| 20260508063356 | 48 | 20 | 1.0 | 3.0 | 0.00 | 0.08 | 0.00 | 82 | 1010.3 |
| 20260508063133 | 48 | 20 | 1.0 | 3.0 | 0.00 | 0.08 | 0.00 | 82 | 1010.4 |
| 20260508062842 | 48 | 20 | 1.0 | 3.0 | 0.00 | 0.08 | 0.00 | 81 | 1010.4 |
| 20260508062701 | 48 | 20 | 1.0 | 3.0 | 0.00 | 0.08 | 0.00 | 81 | 1010.4 |
| 20260508062330 | 48 | 20 | 1.0 | 3.0 | 0.00 | 0.08 | 0.00 | 80 | 1010.5 |
| 20260508062148 | 48 | 20 | 1.0 | 4.0 | 0.00 | 0.08 | 0.00 | 80 | 1010.5 |
| 20260508061900 | 48 | 20 | 2.0 | 4.0 | 0.00 | 0.08 | 0.00 | 79 | 1010.5 |
| 20260508061638 | 48 | 20 | 1.0 | 4.0 | 0.00 | 0.08 | 0.00 | 79 | 1010.5 |
| 20260508061347 | 48 | 20 | 2.0 | 5.0 | 0.00 | 0.08 | 0.00 | 79 | 1010.5 |
| 20260508061145 | 48 | 360 | 1.0 | 5.0 | 0.00 | 0.08 | 0.00 | 78 | 1010.6 |
| 20260508060854 | 49 | 360 | 1.0 | 6.0 | 0.00 | 0.08 | 0.00 | 78 | 1010.6 |
| 20260508060630 | 49 | 360 | 2.0 | 6.0 | 0.00 | 0.08 | 0.00 | 77 | 1010.7 |
| 20260508060342 | 49 | 341 | 1.0 | 10.0 | 0.00 | 0.08 | 0.00 | 77 | 1010.7 |
| 20260508060140 | 49 | 341 | 3.0 | 10.0 | 0.00 | 0.08 | 0.00 | 76 | 1010.7 |
| 20260508055830 | 50 | 3 | 3.0 | 10.0 | 0.00 | 0.08 | 0.00 | 74 | 1010.7 |
| 20260508055648 | 50 | 3 | 3.0 | 10.0 | 0.00 | 0.08 | 0.00 | 73 | 1010.7 |
| 20260508055333 | 50 | 29 | 3.0 | 9.0 | 0.00 | 0.08 | 0.00 | 72 | 1010.7 |
| 20260508055134 | 50 | 13 | 3.0 | 14.0 | 0.00 | 0.08 | 0.00 | 70 | 1010.7 |
| 20260508054841 | 51 | 10 | 2.0 | 14.0 | 0.00 | 0.09 | 0.00 | 68 | 1010.7 |
| 20260508054644 | 51 | 315 | 2.0 | 14.0 | 0.00 | 0.09 | 0.00 | 68 | 1010.5 |
| 20260508054331 | 51 | 356 | 3.0 | 10.0 | 0.00 | 0.09 | 0.00 | 67 | 1010.5 |
| 20260508054153 | 51 | 280 | 1.0 | 10.0 | 0.00 | 0.09 | 0.00 | 68 | 1010.4 |
| 20260508053859 | 51 | 248 | 2.0 | 10.0 | 0.00 | 0.09 | 0.00 | 67 | 1010.3 |
| 20260508053640 | 50 | 272 | 3.0 | 10.0 | 0.00 | 0.09 | 0.00 | 68 | 1010.1 |
| 20260508053347 | 50 | 275 | 2.0 | 8.0 | 0.00 | 0.09 | 0.00 | 69 | 1010.0 |
| 20260508053145 | 50 | 252 | 2.0 | 8.0 | 0.00 | 0.09 | 0.00 | 69 | 1009.8 |
| 20260508052836 | 50 | 66 | 2.0 | 5.0 | 0.00 | 0.09 | 0.00 | 70 | 1009.8 |
| 20260508052633 | 49 | 339 | 2.0 | 5.0 | 0.00 | 0.09 | 0.00 | 71 | 1009.7 |
| 20260508052345 | 49 | 356 | 2.0 | 5.0 | 0.00 | 0.09 | 0.00 | 73 | 1009.5 |
| 20260508052142 | 49 | 346 | 1.0 | 5.0 | 0.00 | 0.09 | 0.00 | 74 | 1009.2 |
| 20260508051833 | 49 | 4 | 1.0 | 4.0 | 0.00 | 0.09 | 0.00 | 75 | 1008.6 |
| 20260508051631 | 49 | 4 | 2.0 | 4.0 | 0.00 | 0.09 | 0.00 | 75 | 1008.3 |
| 20260508051338 | 49 | 4 | 2.0 | 3.0 | 0.00 | 0.09 | 0.00 | 75 | 1008.0 |
| 20260508051159 | 49 | 4 | 1.0 | 3.0 | 0.00 | 0.09 | 0.00 | 75 | 1008.0 |
| 20260508050849 | 49 | 4 | 2.0 | 3.0 | 0.00 | 0.09 | 0.00 | 76 | 1008.0 |
| 20260508050647 | 49 | 4 | 1.0 | 2.0 | 0.00 | 0.09 | 0.00 | 76 | 1008.0 |
| 20260508050337 | 49 | 4 | 1.0 | 2.0 | 0.00 | 0.09 | 0.00 | 76 | 1008.0 |
| 20260508050133 | 49 | 4 | 1.0 | 3.0 | 0.00 | 0.09 | 0.00 | 76 | 1008.1 |
| 20260508045844 | 49 | 4 | 1.0 | 3.0 | 0.00 | 0.09 | 0.00 | 76 | 1008.2 |
| 20260508045643 | 49 | 4 | 1.0 | 3.0 | 0.00 | 0.09 | 0.00 | 75 | 1008.2 |
| 20260508045333 | 49 | 4 | 2.0 | 4.0 | 0.00 | 0.09 | 0.00 | 75 | 1008.1 |
| 20260508045131 | 49 | 4 | 2.0 | 4.0 | 0.00 | 0.09 | 0.00 | 75 | 1008.0 |
| 20260508044841 | 49 | 4 | 2.0 | 4.0 | 0.00 | 0.09 | 0.00 | 74 | 1008.0 |
| 20260508044639 | 49 | 4 | 2.0 | 3.0 | 0.00 | 0.09 | 0.00 | 74 | 1008.0 |
| 20260508044408 | 50 | 4 | 2.0 | 4.0 | 0.00 | 0.09 | 0.00 | 73 | 1007.8 |
| 20260508044210 | 50 | 4 | 1.0 | 4.0 | 0.00 | 0.09 | 0.00 | 73 | 1007.8 |
| 20260508043835 | 50 | 4 | 2.0 | 4.0 | 0.00 | 0.09 | 0.00 | 72 | 1007.7 |
| 20260508043638 | 50 | 4 | 2.0 | 4.0 | 0.00 | 0.09 | 0.00 | 72 | 1007.8 |
| 20260508043345 | 50 | 4 | 2.0 | 3.0 | 0.00 | 0.09 | 0.00 | 72 | 1007.9 |
| 20260508043147 | 50 | 4 | 2.0 | 3.0 | 0.00 | 0.09 | 0.00 | 72 | 1008.0 |
| 20260508042854 | 50 | 4 | 2.0 | 3.0 | 0.00 | 0.09 | 0.00 | 72 | 1008.0 |
| 20260508042635 | 50 | 4 | 2.0 | 4.0 | 0.00 | 0.09 | 0.00 | 71 | 1008.1 |
| 20260508042341 | 50 | 4 | 2.0 | 4.0 | 0.00 | 0.09 | 0.00 | 71 | 1008.1 |
| 20260508042142 | 50 | 4 | 2.0 | 4.0 | 0.00 | 0.09 | 0.00 | 71 | 1008.1 |
| 20260508041848 | 50 | 4 | 2.0 | 4.0 | 0.00 | 0.09 | 0.00 | 71 | 1008.0 |
| 20260508041645 | 50 | 4 | 2.0 | 4.0 | 0.00 | 0.09 | 0.00 | 71 | 1008.0 |
| 20260508041334 | 50 | 4 | 2.0 | 3.0 | 0.00 | 0.09 | 0.00 | 72 | 1008.0 |
| 20260508041132 | 50 | 4 | 2.0 | 3.0 | 0.00 | 0.09 | 0.00 | 73 | 1007.9 |
| 20260508040843 | 50 | 4 | 2.0 | 4.0 | 0.00 | 0.09 | 0.00 | 73 | 1008.0 |
| 20260508040703 | 50 | 4 | 2.0 | 4.0 | 0.00 | 0.09 | 0.00 | 73 | 1008.0 |
| 20260508040331 | 49 | 4 | 2.0 | 4.0 | 0.00 | 0.09 | 0.00 | 73 | 1008.0 |
| 20260508040149 | 49 | 4 | 2.0 | 4.0 | 0.00 | 0.09 | 0.00 | 73 | 1007.9 |
| 20260508035832 | 49 | 4 | 2.0 | 4.0 | 0.00 | 0.09 | 0.00 | 73 | 1007.9 |
| 20260508035631 | 49 | 4 | 2.0 | 4.0 | 0.00 | 0.09 | 0.00 | 73 | 1007.9 |
| 20260508035342 | 49 | 4 | 2.0 | 4.0 | 0.00 | 0.09 | 0.00 | 73 | 1007.9 |
| 20260508035140 | 49 | 4 | 2.0 | 4.0 | 0.00 | 0.09 | 0.00 | 73 | 1007.9 |
| 20260508034831 | 49 | 4 | 2.0 | 4.0 | 0.00 | 0.09 | 0.09 | 73 | 1007.9 |
| 20260508034648 | 49 | 4 | 2.0 | 4.0 | 0.00 | 0.09 | 0.09 | 73 | 1007.9 |
| 20260508034340 | 49 | 4 | 2.0 | 3.0 | 0.00 | 0.09 | 0.09 | 73 | 1007.9 |
| 20260508034159 | 49 | 4 | 2.0 | 3.0 | 0.00 | 0.09 | 0.09 | 73 | 1007.8 |
| 20260508033848 | 49 | 4 | 2.0 | 3.0 | 0.00 | 0.09 | 0.09 | 73 | 1007.9 |
| 20260508033645 | 49 | 4 | 2.0 | 3.0 | 0.00 | 0.09 | 0.09 | 73 | 1007.9 |
| 20260508033335 | 49 | 4 | 2.0 | 3.0 | 0.00 | 0.09 | 0.09 | 73 | 1007.8 |
| 20260508033133 | 49 | 4 | 2.0 | 3.0 | 0.00 | 0.09 | 0.09 | 74 | 1007.9 |
| 20260508032840 | 49 | 4 | 1.0 | 3.0 | 0.00 | 0.09 | 0.09 | 74 | 1007.9 |
| 20260508032642 | 49 | 4 | 0.0 | 0.0 | 0.00 | 0.09 | 0.09 | 74 | 1008.0 |
| 20260508032348 | 49 | 4 | 0.0 | 0.0 | 0.00 | 0.09 | 0.09 | 73 | 1008.0 |
| 20260508032149 | 49 | 4 | 0.0 | 0.0 | 0.00 | 0.09 | 0.09 | 73 | 1008.1 |
| 20260508031836 | 49 | 4 | 0.0 | 0.0 | 0.00 | 0.09 | 0.09 | 73 | 1008.1 |
| 20260508031638 | 49 | 4 | 0.0 | 0.0 | 0.00 | 0.09 | 0.09 | 73 | 1008.2 |
| 20260508031404 | 49 | 4 | 0.0 | 0.0 | 0.00 | 0.09 | 0.09 | 73 | 1008.2 |
| 20260508031205 | 49 | 4 | 0.0 | 0.0 | 0.00 | 0.09 | 0.09 | 73 | 1008.2 |
| 20260508030831 | 49 | 4 | 0.0 | 0.0 | 0.00 | 0.09 | 0.09 | 73 | 1008.2 |
| 20260508030633 | 49 | 4 | 0.0 | 0.0 | 0.00 | 0.09 | 0.09 | 73 | 1008.2 |
| 20260508030338 | 49 | 4 | 0.0 | 0.0 | 0.00 | 0.09 | 0.09 | 73 | 1008.3 |
| 20260508030137 | 49 | 4 | 0.0 | 0.0 | 0.00 | 0.09 | 0.09 | 73 | 1008.2 |
| 20260508025847 | 49 | 4 | 0.0 | 0.0 | 0.00 | 0.09 | 0.09 | 73 | 1008.2 |
| 20260508025644 | 49 | 4 | 0.0 | 0.0 | 0.00 | 0.09 | 0.09 | 73 | 1008.2 |
| 20260508025334 | 49 | 4 | 0.0 | 0.0 | 0.00 | 0.09 | 0.09 | 72 | 1008.1 |
| 20260508025155 | 49 | 4 | 0.0 | 0.0 | 0.00 | 0.09 | 0.09 | 72 | 1008.2 |
| 20260508024844 | 49 | 4 | 0.0 | 0.0 | 0.00 | 0.09 | 0.09 | 72 | 1008.1 |
| 20260508024642 | 49 | 4 | 0.0 | 0.0 | 0.00 | 0.09 | 0.09 | 72 | 1008.1 |
| 20260508024333 | 49 | 4 | 0.0 | 0.0 | 0.00 | 0.09 | 0.09 | 72 | 1008.1 |
| 20260508024131 | 49 | 4 | 0.0 | 0.0 | 0.00 | 0.09 | 0.09 | 72 | 1008.1 |
| 20260508023842 | 49 | 4 | 0.0 | 0.0 | 0.00 | 0.09 | 0.09 | 73 | 1008.1 |
| 20260508023640 | 49 | 4 | 0.0 | 0.0 | 0.00 | 0.09 | 0.09 | 72 | 1008.1 |
| 20260508023349 | 49 | 4 | 0.0 | 0.0 | 0.00 | 0.09 | 0.09 | 72 | 1008.2 |
| 20260508023148 | 49 | 4 | 0.0 | 0.0 | 0.00 | 0.09 | 0.09 | 72 | 1008.2 |
| 20260508022839 | 49 | 4 | 0.0 | 0.0 | 0.00 | 0.09 | 0.09 | 72 | 1008.2 |
| 20260508022637 | 49 | 4 | 0.0 | 0.0 | 0.00 | 0.09 | 0.09 | 72 | 1008.1 |
| 20260508022408 | 49 | 4 | 0.0 | 0.0 | 0.00 | 0.09 | 0.09 | 72 | 1008.1 |
| 20260508022144 | 49 | 4 | 0.0 | 0.0 | 0.00 | 0.09 | 0.09 | 71 | 1008.0 |
| 20260508021835 | 49 | 4 | 0.0 | 0.0 | 0.00 | 0.09 | 0.09 | 71 | 1008.1 |
| 20260508021632 | 49 | 4 | 0.0 | 0.0 | 0.00 | 0.09 | 0.09 | 71 | 1008.1 |
| 20260508021336 | 49 | 4 | 0.0 | 0.0 | 0.00 | 0.09 | 0.09 | 71 | 1008.1 |
| 20260508021159 | 49 | 4 | 0.0 | 0.0 | 0.00 | 0.09 | 0.09 | 71 | 1008.1 |
| 20260508020845 | 49 | 4 | 0.0 | 0.0 | 0.00 | 0.09 | 0.09 | 70 | 1008.1 |
| 20260508020647 | 49 | 4 | 0.0 | 0.0 | 0.00 | 0.09 | 0.09 | 70 | 1008.1 |
| 20260508020334 | 49 | 4 | 0.0 | 0.0 | 0.00 | 0.09 | 0.09 | 70 | 1008.0 |
| 20260508020135 | 49 | 4 | 0.0 | 0.0 | 0.00 | 0.09 | 0.09 | 70 | 1008.0 |
| 20260508015843 | 49 | 4 | 0.0 | 0.0 | 0.00 | 0.09 | 0.09 | 70 | 1008.0 |
| 20260508015706 | 49 | 4 | 0.0 | 0.0 | 0.00 | 0.09 | 0.09 | 70 | 1008.0 |
| 20260508015352 | 50 | 4 | 0.0 | 0.0 | 0.00 | 0.09 | 0.09 | 70 | 1008.0 |
| 20260508015148 | 50 | 4 | 0.0 | 0.0 | 0.00 | 0.09 | 0.09 | 69 | 1007.9 |
| 20260508014837 | 50 | 4 | 0.0 | 0.0 | 0.00 | 0.11 | 0.09 | 69 | 1007.9 |
| 20260508014654 | 50 | 4 | 0.0 | 1.0 | 0.00 | 0.11 | 0.09 | 69 | 1007.9 |
| 20260508014404 | 50 | 4 | 0.0 | 2.0 | 0.00 | 0.11 | 0.09 | 69 | 1007.8 |
| 20260508014142 | 50 | 4 | 0.0 | 2.0 | 0.00 | 0.11 | 0.09 | 69 | 1007.9 |
| 20260508013833 | 50 | 4 | 1.0 | 2.0 | 0.00 | 0.11 | 0.09 | 69 | 1007.9 |
| 20260508013630 | 50 | 4 | 1.0 | 2.0 | 0.00 | 0.11 | 0.09 | 68 | 1007.8 |
| 20260508013343 | 50 | 4 | 1.0 | 2.0 | 0.00 | 0.11 | 0.09 | 68 | 1007.8 |
| 20260508013201 | 50 | 4 | 0.0 | 1.0 | 0.00 | 0.11 | 0.09 | 67 | 1007.8 |
| 20260508012830 | 51 | 4 | 0.0 | 1.0 | 0.00 | 0.11 | 0.09 | 67 | 1007.9 |
| 20260508012647 | 51 | 4 | 0.0 | 1.0 | 0.00 | 0.11 | 0.09 | 66 | 1007.9 |
| 20260508012337 | 51 | 4 | 0.0 | 0.0 | 0.00 | 0.11 | 0.09 | 65 | 1007.9 |
| 20260508012135 | 51 | 4 | 0.0 | 0.0 | 0.00 | 0.11 | 0.09 | 65 | 1007.9 |
| 20260508011841 | 51 | 4 | 0.0 | 0.0 | 0.00 | 0.11 | 0.09 | 64 | 1007.9 |
| 20260508011643 | 51 | 4 | 0.0 | 0.0 | 0.00 | 0.11 | 0.09 | 64 | 1007.8 |
| 20260508011348 | 52 | 4 | 0.0 | 0.0 | 0.00 | 0.11 | 0.09 | 64 | 1007.8 |
| 20260508011151 | 52 | 4 | 0.0 | 0.0 | 0.00 | 0.11 | 0.09 | 63 | 1007.8 |
| 20260508010837 | 52 | 4 | 0.0 | 0.0 | 0.00 | 0.11 | 0.09 | 63 | 1007.8 |
| 20260508010638 | 52 | 4 | 0.0 | 0.0 | 0.00 | 0.11 | 0.09 | 63 | 1007.8 |
| 20260508010345 | 52 | 4 | 0.0 | 0.0 | 0.00 | 0.11 | 0.09 | 62 | 1007.7 |
| 20260508010147 | 52 | 4 | 0.0 | 0.0 | 0.00 | 0.11 | 0.09 | 62 | 1007.7 |
| 20260508005835 | 53 | 4 | 0.0 | 0.0 | 0.00 | 0.11 | 0.09 | 62 | 1007.6 |
| 20260508005657 | 53 | 4 | 0.0 | 0.0 | 0.00 | 0.11 | 0.09 | 62 | 1007.6 |
| 20260508005343 | 53 | 4 | 0.0 | 0.0 | 0.00 | 0.11 | 0.09 | 62 | 1007.6 |
| 20260508005142 | 53 | 4 | 0.0 | 0.0 | 0.00 | 0.11 | 0.09 | 61 | 1007.6 |
| 20260508004832 | 54 | 4 | 0.0 | 0.0 | 0.00 | 0.13 | 0.09 | 60 | 1007.5 |
| 20260508004631 | 54 | 4 | 0.0 | 0.0 | 0.00 | 0.13 | 0.09 | 60 | 1007.5 |
| 20260508004343 | 54 | 4 | 0.0 | 0.0 | 0.00 | 0.13 | 0.09 | 59 | 1007.5 |
| 20260508004140 | 54 | 4 | 0.0 | 0.0 | 0.00 | 0.13 | 0.09 | 59 | 1007.5 |
| 20260508003831 | 54 | 4 | 0.0 | 0.0 | 0.00 | 0.13 | 0.09 | 57 | 1007.4 |
| 20260508003649 | 55 | 4 | 0.0 | 1.0 | 0.00 | 0.13 | 0.09 | 57 | 1007.4 |
| 20260508003338 | 55 | 4 | 0.0 | 1.0 | 0.00 | 0.13 | 0.09 | 55 | 1007.3 |
| 20260508003157 | 55 | 4 | 0.0 | 1.0 | 0.00 | 0.13 | 0.09 | 55 | 1007.4 |
| 20260508002849 | 56 | 4 | 0.0 | 1.0 | 0.00 | 0.13 | 0.09 | 54 | 1007.3 |
| 20260508002707 | 56 | 4 | 0.0 | 1.0 | 0.00 | 0.13 | 0.09 | 52 | 1007.3 |
| 20260508002336 | 56 | 4 | 0.0 | 1.0 | 0.00 | 0.13 | 0.09 | 52 | 1007.1 |
| 20260508002135 | 56 | 4 | 0.0 | 1.0 | 0.00 | 0.13 | 0.09 | 51 | 1007.1 |
| 20260508001846 | 57 | 4 | 0.0 | 1.0 | 0.00 | 0.13 | 0.09 | 50 | 1007.0 |
| 20260508001644 | 57 | 4 | 0.0 | 1.0 | 0.00 | 0.13 | 0.09 | 49 | 1007.0 |
| 20260508001334 | 57 | 4 | 0.0 | 1.0 | 0.00 | 0.13 | 0.09 | 48 | 1007.0 |
| 20260508001132 | 57 | 4 | 0.0 | 1.0 | 0.00 | 0.13 | 0.09 | 48 | 1007.0 |
| 20260508000843 | 58 | 4 | 0.0 | 1.0 | 0.00 | 0.13 | 0.09 | 47 | 1007.0 |
| 20260508000642 | 58 | 4 | 0.0 | 3.0 | 0.00 | 0.13 | 0.09 | 47 | 1007.0 |
| 20260508000334 | 58 | 4 | 0.0 | 3.0 | 0.00 | 0.13 | 0.09 | 46 | 1006.9 |
| 20260508000150 | 58 | 4 | 0.0 | 3.0 | 0.00 | 0.13 | 0.09 | 46 | 1006.9 |
| 20260507235856 | 59 | 4 | 1.0 | 2.0 | 0.00 | 0.13 | 0.09 | 46 | 1006.8 |
| 20260507235638 | 59 | 4 | 0.0 | 1.0 | 0.00 | 0.13 | 0.09 | 44 | 1006.7 |
| 20260507235406 | 59 | 4 | 0.0 | 1.0 | 0.00 | 0.13 | 0.09 | 44 | 1006.6 |
| 20260507235148 | 59 | 4 | 0.0 | 2.0 | 0.00 | 0.13 | 0.09 | 44 | 1006.6 |
| 20260507234836 | 59 | 4 | 0.0 | 2.0 | 0.00 | 0.13 | 0.09 | 43 | 1006.7 |
| 20260507234658 | 60 | 4 | 0.0 | 2.0 | 0.00 | 0.13 | 0.09 | 43 | 1006.8 |
| 20260507234343 | 60 | 4 | 1.0 | 2.0 | 0.00 | 0.13 | 0.09 | 43 | 1006.8 |
| 20260507234141 | 60 | 4 | 0.0 | 3.0 | 0.00 | 0.13 | 0.09 | 43 | 1006.9 |
| 20260507233832 | 60 | 4 | 0.0 | 3.0 | 0.00 | 0.13 | 0.09 | 44 | 1006.9 |
| 20260507233648 | 60 | 4 | 1.0 | 3.0 | 0.00 | 0.13 | 0.09 | 43 | 1006.8 |
| 20260507233338 | 60 | 4 | 1.0 | 3.0 | 0.00 | 0.13 | 0.09 | 43 | 1006.7 |
| 20260507233135 | 60 | 4 | 2.0 | 3.0 | 0.00 | 0.13 | 0.09 | 42 | 1006.7 |
| 20260507232845 | 60 | 4 | 2.0 | 10.0 | 0.00 | 0.13 | 0.09 | 41 | 1006.7 |
| 20260507232703 | 60 | 4 | 1.0 | 10.0 | 0.00 | 0.13 | 0.09 | 42 | 1006.6 |
| 20260507232411 | 60 | 4 | 2.0 | 10.0 | 0.00 | 0.13 | 0.09 | 41 | 1006.6 |
| 20260507232148 | 60 | 4 | 4.0 | 10.0 | 0.00 | 0.13 | 0.09 | 41 | 1006.6 |
| 20260507231859 | 61 | 351 | 2.0 | 9.0 | 0.00 | 0.13 | 0.09 | 42 | 1006.6 |
| 20260507231636 | 61 | 351 | 2.0 | 9.0 | 0.00 | 0.13 | 0.09 | 41 | 1006.6 |
| 20260507231346 | 61 | 351 | 3.0 | 9.0 | 0.00 | 0.13 | 0.09 | 41 | 1006.5 |
| 20260507231144 | 61 | 351 | 4.0 | 9.0 | 0.00 | 0.13 | 0.09 | 40 | 1006.5 |
| 20260507230834 | 61 | 356 | 4.0 | 9.0 | 0.00 | 0.13 | 0.09 | 41 | 1006.5 |
| 20260507230632 | 61 | 22 | 4.0 | 8.0 | 0.00 | 0.13 | 0.09 | 40 | 1006.5 |
| 20260507230339 | 61 | 6 | 4.0 | 8.0 | 0.00 | 0.13 | 0.09 | 41 | 1006.6 |
| 20260507230202 | 61 | 351 | 2.0 | 6.0 | 0.00 | 0.13 | 0.09 | 41 | 1006.5 |
| 20260507225849 | 61 | 351 | 2.0 | 6.0 | 0.00 | 0.13 | 0.09 | 40 | 1006.5 |
| 20260507225651 | 61 | 356 | 4.0 | 6.0 | 0.00 | 0.13 | 0.09 | 40 | 1006.5 |
| 20260507225338 | 61 | 356 | 3.0 | 6.0 | 0.00 | 0.13 | 0.09 | 40 | 1006.6 |
| 20260507225140 | 61 | 351 | 3.0 | 6.0 | 0.00 | 0.13 | 0.09 | 40 | 1006.6 |
| 20260507224846 | 62 | 8 | 4.0 | 9.0 | 0.00 | 0.13 | 0.09 | 39 | 1006.5 |
| 20260507224646 | 62 | 346 | 3.0 | 9.0 | 0.00 | 0.13 | 0.09 | 39 | 1006.4 |
| 20260507224333 | 62 | 356 | 3.0 | 9.0 | 0.00 | 0.13 | 0.09 | 40 | 1006.5 |
| 20260507224136 | 62 | 356 | 2.0 | 6.0 | 0.00 | 0.13 | 0.09 | 40 | 1006.4 |
| 20260507223844 | 62 | 314 | 1.0 | 4.0 | 0.00 | 0.13 | 0.09 | 41 | 1006.4 |
| 20260507223645 | 62 | 333 | 1.0 | 4.0 | 0.00 | 0.13 | 0.09 | 40 | 1006.5 |
| 20260507223333 | 62 | 333 | 1.0 | 9.0 | 0.00 | 0.13 | 0.09 | 40 | 1006.5 |
| 20260507223134 | 62 | 351 | 1.0 | 10.0 | 0.00 | 0.13 | 0.09 | 39 | 1006.5 |
| 20260507222841 | 62 | 330 | 2.0 | 11.0 | 0.00 | 0.13 | 0.09 | 39 | 1006.5 |
| 20260507222639 | 62 | 328 | 4.0 | 11.0 | 0.00 | 0.13 | 0.09 | 39 | 1006.5 |
| 20260507222348 | 62 | 7 | 7.0 | 11.0 | 0.00 | 0.13 | 0.09 | 38 | 1006.5 |
| 20260507222145 | 62 | 23 | 6.0 | 10.0 | 0.00 | 0.13 | 0.09 | 39 | 1006.5 |
| 20260507221836 | 62 | 261 | 2.0 | 10.0 | 0.00 | 0.13 | 0.09 | 39 | 1006.4 |
| 20260507221635 | 62 | 342 | 5.0 | 10.0 | 0.00 | 0.13 | 0.09 | 39 | 1006.5 |
| 20260507221345 | 62 | 25 | 2.0 | 11.0 | 0.00 | 0.13 | 0.09 | 40 | 1006.4 |
| 20260507221142 | 62 | 356 | 5.0 | 11.0 | 0.00 | 0.13 | 0.09 | 37 | 1006.3 |
| 20260507220833 | 63 | 356 | 7.0 | 11.0 | 0.00 | 0.13 | 0.09 | 38 | 1006.5 |
| 20260507220632 | 63 | 30 | 5.0 | 11.0 | 0.00 | 0.13 | 0.09 | 39 | 1006.5 |
| 20260507220343 | 63 | 27 | 4.0 | 12.0 | 0.00 | 0.13 | 0.09 | 40 | 1006.5 |
| 20260507220141 | 63 | 46 | 5.0 | 12.0 | 0.00 | 0.13 | 0.09 | 39 | 1006.5 |
| 20260507215831 | 63 | 2 | 5.0 | 12.0 | 0.00 | 0.13 | 0.09 | 40 | 1006.5 |
| 20260507215649 | 63 | 356 | 4.0 | 10.0 | 0.00 | 0.13 | 0.09 | 39 | 1006.5 |
| 20260507215339 | 62 | 356 | 2.0 | 9.0 | 0.00 | 0.13 | 0.09 | 39 | 1006.5 |
| 20260507215157 | 62 | 315 | 2.0 | 12.0 | 0.00 | 0.13 | 0.09 | 40 | 1006.5 |
| 20260507214846 | 62 | 342 | 3.0 | 12.0 | 0.00 | 0.13 | 0.09 | 39 | 1006.6 |
| 20260507214644 | 62 | 4 | 3.0 | 12.0 | 0.00 | 0.13 | 0.09 | 40 | 1006.6 |
| 20260507214355 | 62 | 356 | 5.0 | 11.0 | 0.00 | 0.13 | 0.09 | 38 | 1006.5 |
| 20260507214132 | 62 | 13 | 5.0 | 11.0 | 0.00 | 0.13 | 0.09 | 38 | 1006.6 |
| 20260507213837 | 62 | 341 | 3.0 | 12.0 | 0.00 | 0.13 | 0.09 | 39 | 1006.6 |
| 20260507213639 | 62 | 3 | 6.0 | 12.0 | 0.00 | 0.13 | 0.09 | 37 | 1006.5 |
| 20260507213347 | 62 | 351 | 6.0 | 12.0 | 0.00 | 0.13 | 0.09 | 37 | 1006.5 |
| 20260507213149 | 62 | 356 | 3.0 | 9.0 | 0.00 | 0.13 | 0.09 | 38 | 1006.5 |
| 20260507212855 | 62 | 356 | 4.0 | 12.0 | 0.00 | 0.13 | 0.09 | 37 | 1006.5 |
| 20260507212636 | 63 | 351 | 3.0 | 14.0 | 0.00 | 0.13 | 0.09 | 38 | 1006.5 |
| 20260507212343 | 63 | 340 | 5.0 | 14.0 | 0.00 | 0.13 | 0.09 | 37 | 1006.5 |
| 20260507212147 | 63 | 12 | 6.0 | 14.0 | 0.00 | 0.13 | 0.09 | 37 | 1006.5 |
| 20260507211833 | 64 | 23 | 4.0 | 12.0 | 0.00 | 0.13 | 0.09 | 37 | 1006.4 |
| 20260507211636 | 64 | 337 | 5.0 | 12.0 | 0.00 | 0.13 | 0.09 | 37 | 1006.4 |
| 20260507211341 | 65 | 281 | 3.0 | 10.0 | 0.00 | 0.13 | 0.09 | 38 | 1006.4 |
| 20260507211144 | 65 | 10 | 2.0 | 10.0 | 0.00 | 0.13 | 0.09 | 38 | 1006.4 |
| 20260507210831 | 65 | 67 | 3.0 | 10.0 | 0.00 | 0.13 | 0.09 | 37 | 1006.4 |
| 20260507210634 | 66 | 31 | 5.0 | 10.0 | 0.00 | 0.13 | 0.09 | 36 | 1006.3 |
| 20260507210400 | 65 | 218 | 3.0 | 9.0 | 0.00 | 0.13 | 0.09 | 37 | 1006.3 |
| 20260507210136 | 65 | 346 | 2.0 | 9.0 | 0.00 | 0.13 | 0.09 | 38 | 1006.3 |
| 20260507205847 | 65 | 360 | 3.0 | 11.0 | 0.00 | 0.13 | 0.09 | 36 | 1006.3 |
| 20260507205645 | 65 | 35 | 2.0 | 11.0 | 0.00 | 0.13 | 0.09 | 37 | 1006.3 |
| 20260507205335 | 65 | 356 | 4.0 | 11.0 | 0.00 | 0.13 | 0.09 | 37 | 1006.3 |
| 20260507205133 | 64 | 269 | 4.0 | 11.0 | 0.00 | 0.13 | 0.09 | 38 | 1006.3 |
| 20260507204844 | 64 | 34 | 5.0 | 11.0 | 0.00 | 0.13 | 0.09 | 36 | 1006.3 |
| 20260507204641 | 64 | 9 | 4.0 | 9.0 | 0.00 | 0.13 | 0.09 | 38 | 1006.2 |
| 20260507204352 | 65 | 316 | 2.0 | 9.0 | 0.00 | 0.13 | 0.09 | 37 | 1006.1 |
| 20260507204149 | 65 | 60 | 2.0 | 9.0 | 0.00 | 0.13 | 0.09 | 37 | 1006.2 |
| 20260507203902 | 64 | 225 | 2.0 | 9.0 | 0.00 | 0.13 | 0.09 | 37 | 1006.2 |
| 20260507203639 | 64 | 346 | 2.0 | 11.0 | 0.00 | 0.13 | 0.09 | 36 | 1006.2 |
| 20260507203350 | 64 | 346 | 2.0 | 12.0 | 0.00 | 0.13 | 0.09 | 38 | 1006.3 |
| 20260507203146 | 64 | 341 | 4.0 | 13.0 | 0.00 | 0.13 | 0.09 | 36 | 1006.2 |
| 20260507202836 | 64 | 293 | 3.0 | 13.0 | 0.00 | 0.13 | 0.09 | 39 | 1006.2 |
| 20260507202656 | 64 | 27 | 7.0 | 13.0 | 0.00 | 0.13 | 0.09 | 36 | 1006.3 |
| 20260507202401 | 65 | 346 | 8.0 | 15.0 | 0.00 | 0.13 | 0.09 | 37 | 1006.1 |
| 20260507202143 | 65 | 6 | 3.0 | 15.0 | 0.00 | 0.13 | 0.09 | 39 | 1006.2 |
| 20260507201849 | 65 | 13 | 6.0 | 15.0 | 0.00 | 0.13 | 0.09 | 37 | 1006.2 |
| 20260507201631 | 66 | 10 | 6.0 | 15.0 | 0.00 | 0.13 | 0.09 | 38 | 1006.2 |
| 20260507201356 | 66 | 360 | 2.0 | 9.0 | 0.00 | 0.13 | 0.09 | 37 | 1006.2 |
| 20260507201136 | 66 | 266 | 2.0 | 13.0 | 0.00 | 0.13 | 0.09 | 39 | 1006.2 |
| 20260507200842 | 66 | 13 | 2.0 | 13.0 | 0.00 | 0.13 | 0.09 | 39 | 1006.2 |
| 20260507200641 | 65 | 266 | 2.0 | 13.0 | 0.00 | 0.13 | 0.09 | 39 | 1006.2 |
| 20260507200332 | 65 | 255 | 4.0 | 13.0 | 0.00 | 0.13 | 0.09 | 39 | 1006.3 |
| 20260507200149 | 64 | 284 | 4.0 | 13.0 | 0.00 | 0.13 | 0.09 | 39 | 1006.3 |
| 20260507195900 | 64 | 8 | 3.0 | 13.0 | 0.00 | 0.13 | 0.09 | 40 | 1006.3 |
| 20260507195657 | 63 | 274 | 4.0 | 12.0 | 0.00 | 0.13 | 0.09 | 41 | 1006.3 |
| 20260507195347 | 63 | 301 | 4.0 | 8.0 | 0.00 | 0.13 | 0.09 | 40 | 1006.3 |
| 20260507195145 | 63 | 5 | 4.0 | 8.0 | 0.00 | 0.13 | 0.09 | 41 | 1006.3 |
| 20260507194856 | 63 | 26 | 4.0 | 10.0 | 0.00 | 0.15 | 0.09 | 39 | 1006.4 |
| 20260507194634 | 63 | 11 | 3.0 | 11.0 | 0.00 | 0.15 | 0.09 | 40 | 1006.4 |
| 20260507194345 | 63 | 318 | 4.0 | 11.0 | 0.00 | 0.15 | 0.09 | 37 | 1006.4 |
| 20260507194144 | 64 | 9 | 5.0 | 11.0 | 0.00 | 0.15 | 0.09 | 37 | 1006.5 |
| 20260507193835 | 65 | 4 | 4.0 | 11.0 | 0.00 | 0.15 | 0.09 | 38 | 1006.5 |
| 20260507193633 | 65 | 356 | 2.0 | 11.0 | 0.00 | 0.15 | 0.09 | 39 | 1006.4 |
| 20260507193345 | 65 | 12 | 5.0 | 11.0 | 0.00 | 0.15 | 0.09 | 38 | 1006.5 |
| 20260507193142 | 65 | 6 | 3.0 | 11.0 | 0.00 | 0.15 | 0.09 | 40 | 1006.5 |
| 20260507192833 | 66 | 13 | 5.0 | 12.0 | 0.00 | 0.15 | 0.09 | 38 | 1006.5 |
| 20260507192631 | 66 | 22 | 4.0 | 12.0 | 0.00 | 0.15 | 0.09 | 36 | 1006.6 |
| 20260507192339 | 67 | 8 | 4.0 | 12.0 | 0.00 | 0.15 | 0.09 | 38 | 1006.6 |
| 20260507192141 | 67 | 15 | 4.0 | 12.0 | 0.00 | 0.15 | 0.09 | 36 | 1006.5 |
| 20260507191847 | 67 | 356 | 2.0 | 9.0 | 0.00 | 0.15 | 0.09 | 37 | 1006.7 |
| 20260507191630 | 67 | 337 | 2.0 | 9.0 | 0.00 | 0.15 | 0.09 | 40 | 1006.6 |
| 20260507191334 | 67 | 8 | 2.0 | 8.0 | 0.00 | 0.15 | 0.09 | 38 | 1006.7 |
| 20260507191136 | 67 | 287 | 2.0 | 8.0 | 0.00 | 0.15 | 0.09 | 37 | 1006.6 |
| 20260507190842 | 66 | 1 | 4.0 | 9.0 | 0.00 | 0.15 | 0.09 | 39 | 1006.8 |
| 20260507190705 | 66 | 35 | 4.0 | 9.0 | 0.00 | 0.15 | 0.09 | 41 | 1006.9 |
| 20260507190331 | 66 | 356 | 3.0 | 9.0 | 0.00 | 0.15 | 0.09 | 37 | 1006.8 |
| 20260507190133 | 66 | 291 | 2.0 | 8.0 | 0.00 | 0.15 | 0.09 | 40 | 1007.0 |
| 20260507185839 | 65 | 196 | 2.0 | 9.0 | 0.00 | 0.15 | 0.09 | 40 | 1007.1 |
| 20260507185641 | 65 | 338 | 4.0 | 9.0 | 0.00 | 0.15 | 0.09 | 40 | 1007.0 |
| 20260507185408 | 65 | 332 | 4.0 | 9.0 | 0.00 | 0.15 | 0.09 | 38 | 1007.1 |
| 20260507185145 | 65 | 12 | 4.0 | 9.0 | 0.00 | 0.15 | 0.09 | 41 | 1007.0 |
| 20260507184836 | 65 | 342 | 2.0 | 13.0 | 0.00 | 0.15 | 0.09 | 39 | 1006.9 |
| 20260507184635 | 65 | 346 | 3.0 | 13.0 | 0.00 | 0.15 | 0.09 | 40 | 1007.0 |
| 20260507184346 | 65 | 29 | 3.0 | 13.0 | 0.00 | 0.15 | 0.09 | 39 | 1007.0 |
| 20260507184145 | 65 | 341 | 3.0 | 13.0 | 0.00 | 0.15 | 0.09 | 41 | 1007.0 |
| 20260507183836 | 65 | 17 | 2.0 | 8.0 | 0.00 | 0.15 | 0.09 | 39 | 1007.0 |
| 20260507183634 | 65 | 122 | 3.0 | 10.0 | 0.00 | 0.15 | 0.09 | 41 | 1007.1 |
| 20260507183345 | 64 | 5 | 3.0 | 17.0 | 0.00 | 0.15 | 0.09 | 41 | 1007.1 |
| 20260507183144 | 64 | 351 | 3.0 | 17.0 | 0.00 | 0.15 | 0.09 | 40 | 1007.2 |
| 20260507182856 | 64 | 356 | 5.0 | 17.0 | 0.00 | 0.15 | 0.09 | 40 | 1007.1 |
| 20260507182654 | 64 | 2 | 7.0 | 17.0 | 0.00 | 0.15 | 0.09 | 40 | 1007.1 |
| 20260507182343 | 64 | 22 | 4.0 | 9.0 | 0.00 | 0.15 | 0.09 | 42 | 1007.2 |
| 20260507182140 | 63 | 333 | 2.0 | 12.0 | 0.00 | 0.15 | 0.09 | 43 | 1007.2 |
| 20260507181907 | 63 | 317 | 4.0 | 13.0 | 0.00 | 0.15 | 0.09 | 42 | 1007.2 |
| 20260507181649 | 63 | 21 | 3.0 | 15.0 | 0.00 | 0.15 | 0.09 | 42 | 1007.3 |
| 20260507181333 | 63 | 25 | 8.0 | 15.0 | 0.00 | 0.15 | 0.09 | 40 | 1007.4 |
| 20260507181136 | 63 | 20 | 5.0 | 15.0 | 0.00 | 0.15 | 0.09 | 41 | 1007.4 |
| 20260507180842 | 64 | 33 | 4.0 | 10.0 | 0.00 | 0.15 | 0.09 | 43 | 1007.5 |
| 20260507180645 | 63 | 33 | 4.0 | 10.0 | 0.00 | 0.15 | 0.09 | 41 | 1007.5 |
| 20260507180331 | 63 | 204 | 2.0 | 10.0 | 0.00 | 0.15 | 0.09 | 42 | 1007.6 |
| 20260507180155 | 63 | 2 | 4.0 | 10.0 | 0.00 | 0.15 | 0.09 | 41 | 1007.6 |
| 20260507175840 | 63 | 294 | 2.0 | 4.0 | 0.00 | 0.15 | 0.09 | 41 | 1007.6 |
| 20260507175704 | 63 | 306 | 2.0 | 9.0 | 0.00 | 0.15 | 0.09 | 42 | 1007.6 |
| 20260507175349 | 63 | 55 | 2.0 | 12.0 | 0.00 | 0.15 | 0.09 | 41 | 1007.7 |
| 20260507175131 | 63 | 45 | 1.0 | 12.0 | 0.00 | 0.15 | 0.09 | 41 | 1007.7 |
| 20260507174839 | 63 | 356 | 6.0 | 12.0 | 0.00 | 0.16 | 0.09 | 38 | 1007.8 |
| 20260507174637 | 63 | 35 | 6.0 | 10.0 | 0.00 | 0.16 | 0.09 | 44 | 1007.8 |
| 20260507174346 | 63 | 351 | 4.0 | 10.0 | 0.00 | 0.16 | 0.09 | 43 | 1007.8 |
| 20260507174145 | 63 | 356 | 3.0 | 10.0 | 0.00 | 0.16 | 0.09 | 44 | 1007.8 |
| 20260507173835 | 63 | 25 | 4.0 | 10.0 | 0.00 | 0.16 | 0.09 | 43 | 1007.9 |
| 20260507173632 | 63 | 320 | 1.0 | 11.0 | 0.00 | 0.16 | 0.09 | 45 | 1007.9 |
| 20260507173344 | 62 | 356 | 3.0 | 11.0 | 0.00 | 0.16 | 0.09 | 44 | 1008.0 |
| 20260507173202 | 62 | 18 | 3.0 | 11.0 | 0.00 | 0.16 | 0.09 | 43 | 1008.1 |
| 20260507172830 | 62 | 281 | 3.0 | 11.0 | 0.00 | 0.16 | 0.09 | 46 | 1008.0 |
| 20260507172647 | 62 | 346 | 2.0 | 8.0 | 0.00 | 0.16 | 0.09 | 41 | 1008.1 |
| 20260507172357 | 62 | 26 | 4.0 | 12.0 | 0.00 | 0.16 | 0.09 | 47 | 1008.2 |
| 20260507172155 | 62 | 13 | 3.0 | 12.0 | 0.00 | 0.16 | 0.09 | 45 | 1008.2 |
| 20260507171845 | 62 | 25 | 4.0 | 12.0 | 0.00 | 0.16 | 0.09 | 46 | 1008.3 |
| 20260507171704 | 61 | 6 | 4.0 | 12.0 | 0.00 | 0.16 | 0.09 | 46 | 1008.3 |
| 20260507171347 | 61 | 28 | 3.0 | 10.0 | 0.00 | 0.16 | 0.09 | 44 | 1008.3 |
| 20260507171148 | 61 | 248 | 3.0 | 10.0 | 0.00 | 0.16 | 0.09 | 43 | 1008.3 |
| 20260507170834 | 61 | 16 | 4.0 | 11.0 | 0.00 | 0.16 | 0.09 | 42 | 1008.4 |
| 20260507170637 | 61 | 25 | 4.0 | 15.0 | 0.00 | 0.16 | 0.09 | 42 | 1008.4 |
| 20260507170343 | 61 | 19 | 5.0 | 15.0 | 0.00 | 0.16 | 0.09 | 44 | 1008.3 |